User: anonymous   Login
Location: USNO
(38.9242°N, 77.0663°W)
Time: 04:17:19
(UTC-04:00)
Language:

N. Korean satellite - Orbit

View from above orbital plane
View from above orbital plane
View from above satellite
View from above satellite

Ground track
Ground track

The orbit data is extracted from the following two-line orbital elements,

1 39026U 12072A   17294.92158956 +.00001925 +00000-0 +75924-4 0  9998
2 39026 097.2193 308.4374 0041953 088.2782 272.3261 15.25941486269251
Epoch (UTC): 21 October 2017 22:07:05
Eccentricity: 0.0041953
inclination: 97.2193°
perigee height: 459 km
apogee height: 517 km
right ascension of ascending node: 308.4374°
argument of perigee: 88.2782°
revolutions per day: 15.25941486
mean anomaly at epoch: 272.3261°
orbit number at epoch: 26925

The dashed part of the orbit path shows where the satellite is in the earth's shadow,  

DLR